Location: Barrialote
(9.9333°N, 67.3500°W)
Time: 11:40:10
(UTC+00:00)

Daily predictions for brighter satellites

Satellite Brightness Start Highest point End
(mag) Time Altitude Azimuth Time Altitude Azimuth Time Altitude Azimuth
[s.n.59505] 4.4 22:59:12 10° N 23:00:59 17° NE 23:02:46 10° E
[s.n.59504] 4.4 22:59:30 10° N 23:01:17 17° NE 23:03:04 10° E
[s.n.59503] 4.3 22:59:52 10° N 23:01:41 17° NE 23:03:30 10° E
[s.n.59502] 4.3 23:00:13 10° N 23:02:02 17° NE 23:03:51 10° E
[s.n.59501] 4.3 23:00:34 10° N 23:02:24 17° NE 23:04:14 10° E
[s.n.59500] 4.3 23:00:51 10° N 23:02:43 18° NE 23:04:34 10° E
[s.n.59490] 4.3 23:00:56 10° N 23:02:47 17° NE 23:04:37 10° E
[s.n.59499] 4.3 23:01:08 10° N 23:03:01 18° NE 23:04:53 10° E
[s.n.59498] 4.3 23:01:27 10° N 23:03:21 18° NE 23:05:15 10° E
[s.n.59496] 4.2 23:01:52 10° N 23:03:47 18° NE 23:05:41 10° E
[s.n.59497] 4.2 23:02:14 10° N 23:04:09 18° NE 23:06:03 10° E
[s.n.59495] 4.2 23:02:29 10° N 23:04:24 18° NE 23:06:20 10° E
[s.n.59494] 4.2 23:02:50 10° N 23:04:48 19° NE 23:06:45 10° E
[s.n.59493] 4.2 23:03:05 10° N 23:05:03 19° NE 23:07:00 10° E
[s.n.59492] 4.2 23:03:27 10° N 23:05:25 19° NE 23:07:24 10° E
[s.n.59491] 4.1 23:04:08 10° N 23:06:08 20° NE 23:08:06 10° E
[s.n.59487] 4.1 23:04:23 10° N 23:06:26 20° NE 23:08:23 10° E
Cosmos 1346 Rocket 2.7 23:02:46 10° S 23:06:37 87° E 23:10:25 10° N
[s.n.59489] 4.1 23:04:41 10° N 23:06:43 20° NE 23:08:40 10° E
[s.n.59488] 4.1 23:05:03 10° N 23:07:05 20° NE 23:09:00 11° E
[s.n.59486] 4.1 23:05:27 10° N 23:07:30 20° NE 23:09:25 11° E
[s.n.59485] 4.1 23:05:43 10° N 23:07:47 21° NE 23:09:42 11° E
[s.n.59484] 4.1 23:05:57 10° N 23:08:01 21° NE 23:09:55 11° E
NOAA 6 4.0 23:06:04 10° SSE 23:11:11 75° ENE 23:16:16 10° N
Intelsat 5-3 Rocket 4.1 23:08:26 10° WSW 23:13:39 89° NNW 23:27:29 10° ENE
NOSS 3-1 (A) 3.6 23:10:19 10° SW 23:14:49 54° WNW 23:19:26 10° NNE
Cosmos 2221 Rocket 3.6 23:12:57 10° N 23:17:26 64° E 23:21:54 10° SSE
Cosmos 2154 Rocket 4.2 23:11:34 10° N 23:17:44 76° W 23:23:56 10° S
USA 229 DEB 3.7 23:17:38 10° S 23:23:01 38° ESE 23:28:29 10° NE
USA 229 3.8 23:17:43 10° S 23:23:07 38° ESE 23:28:35 10° NE
CBERS 1 LM4 rocket 4.2 23:19:29 10° SSE 23:24:15 74° ENE 23:28:57 10° N
Palapa 6 Rocket 4.0 23:23:51 10° NW 23:27:05 28° NNE 23:29:29 15° ENE
IKONOS-2 4.5 23:23:25 10° NNE 23:27:32 59° ESE 23:31:39 10° S
CZ-4B R/B 3.4 23:23:39 10° SSE 23:28:41 77° ENE 23:33:34 10° N
IGS 5A 3.9 23:25:07 10° S 23:29:09 63° W 23:33:10 10° NNW
Cosmos 1741 Rocket 3.9 23:25:47 10° N 23:31:01 71° ENE 23:36:17 10° SSE
Delta 7925 Rocket 3.5 23:29:07 10° WNW 23:34:03 87° SSW 23:38:08 21° ESE
GPS 2-14 Rocket1 2.7 23:31:30 10° WNW 23:34:46 50° NNE 23:36:17 27° E
GOES 2 Rocket 3.0 23:31:37 10° WSW 23:35:54 87° SE 23:40:07 15° ENE
H-2A R/B 3.6 22:59:20 10° WSW 23:37:01 77° NNW 23:41:30 11° NE
YAOGAN 3 4.5 23:32:56 10° SSE 23:37:14 89° WSW 23:41:31 10° NNW
Cosmos 1674 Rocket 4.4 23:36:28 10° NNW 23:40:47 53° W 23:45:05 10° S
Cosmos 1455 4.2 23:38:35 10° SSW 23:41:42 29° W 23:44:49 10° NNW
Iridium 921 4.3 23:38:39 10° N 23:42:07 76° E 23:45:35 10° S
Meteor PRIRODA 3.4 23:41:46 10° S 23:45:10 84° W 23:48:34 10° NNW
Cosmos 1025 Rocket 3.2 23:41:06 10° N 23:45:18 47° E 23:47:45 22° SSE
ATLAS 3B R/B 4.5 23:41:16 10° SW 23:47:05 33° WNW 23:53:16 10° N
Cosmos 1850 Rocket 4.3 23:42:36 10° NNW 23:47:47 67° WSW 23:52:55 10° S
Cosmos 962 Rocket 4.5 23:41:50 10° N 23:48:12 87° E 23:54:34 10° S
CZ-3C R/B 3.7 23:40:43 10° W 23:48:46 21° SW 23:51:48 10° S
Cosmos 2181 Rocket 4.3 23:43:24 10° S 23:49:28 69° W 23:55:36 10° N
Cosmos 2098 Rocket 3.6 23:47:52 10° S 23:53:53 87° W 23:58:53 10° N
Resurs 1-3 3.9 23:53:06 38° ESE 23:53:53 43° ENE 23:57:59 10° N
Cosmos 1656 3.7 23:48:34 10° S 23:54:03 55° ESE 23:59:30 10° NNE
YAOGAN 1 3.2 23:50:33 10° S 23:54:44 54° W 23:58:55 10° NNW
